Location: Colossi of Memnon
(25.7167°N, 32.6167°E)
Time: 11:59:42
(UTC+00:00)

Cosmos 2333 Rocket - Pass Details

Date: 05 March 2021
Orbit: 837 x 864 km, 70.8° (Epoch: 09 April)

Event Time Altitude Azimuth Distance (km) Brightness Sun altitude
Rises 03:33:53 0° 341° (NNW) 3,441 5.2 -8.7°
Reaches altitude 10° 03:36:21 10° 341° (NNW) 2,503 4.5 -8.1°
Maximum altitude 03:42:08 90° 40° (NE) 867 2.3 -6.8°
Drops below altitude 10° 03:47:53 10° 163° (SSE) 2,490 5.0 -5.6°
Sets 03:50:19 0° 163° (SSE) 3,422 5.7 -5.0°
